This is the latest recevied weather packets stored in our database for station/object WB4YDL. If no packets are shown the sender has not sent any weather packets the latest 10 day(s).
| Time | Temp. | Humidity | Pressure | Rain* | Wind** | Luminosity | Snow |
|---|---|---|---|---|---|---|---|
| 1778150100 | 5.56° C | 99% | 1011.6 hPa | 0 mm | - | 0 W/m² | - |
| 1778149795 | 6.11° C | 99% | 1011.5 hPa | 0 mm | - | 0 W/m² | - |
| 1778149493 | 6.11° C | 99% | 1011.6 hPa | 0 mm | - | 0 W/m² | - |
| 1778149189 | 6.67° C | 99% | 1011.7 hPa | 0 mm | - | 0 W/m² | - |
| 1778148884 | 6.11° C | 99% | 1011.6 hPa | 0 mm | - | 0 W/m² | - |
| 1778148581 | 6.11° C | 99% | 1011.7 hPa | 0 mm | - | 0 W/m² | - |
| 1778148279 | 6.11° C | 99% | 1011.6 hPa | 0 mm | - | 0 W/m² | - |
| 1778147977 | 6.11° C | 99% | 1011.6 hPa | 0 mm | - | 0 W/m² | - |
| 1778147674 | 6.11° C | 99% | 1011.7 hPa | 0 mm | - | 0 W/m² | - |
| 1778147371 | 6.67° C | 99% | 1011.8 hPa | 0 mm | - | 0 W/m² | - |
| 1778147067 | 6.67° C | 99% | 1011.7 hPa | 0 mm | - | 0 W/m² | - |
| 1778146764 | 6.67° C | 99% | 1011.6 hPa | 0 mm | - | 0 W/m² | - |
| 1778146462 | 6.67° C | 99% | 1011.7 hPa | 0 mm | - | 0 W/m² | - |
| 1778146160 | 6.67° C | 99% | 1011.7 hPa | 0 mm | - | 0 W/m² | - |
| 1778145856 | 6.67° C | 99% | 1011.3 hPa | 0 mm | - | 0 W/m² | - |
| 1778145553 | 6.67° C | 99% | 1011.5 hPa | 0 mm | - | 0 W/m² | - |
| 1778145249 | 7.22° C | 99% | 1011.5 hPa | 0 mm | - | 0 W/m² | - |
| 1778144945 | 7.22° C | 99% | 1011.4 hPa | 0 mm | - | 0 W/m² | - |
| 1778144641 | 6.67° C | 99% | 1011.4 hPa | 0 mm | - | 0 W/m² | - |
| 1778144338 | 7.22° C | 99% | 1011.2 hPa | 0 mm | - | 0 W/m² | - |
| 1778144035 | 7.22° C | 99% | 1011 hPa | 0 mm | - | 0 W/m² | - |
| 1778143732 | 7.22° C | 99% | 1010.7 hPa | 0 mm | - | 0 W/m² | - |
| 1778143429 | 7.22° C | 99% | 1011 hPa | 0 mm | - | 0 W/m² | - |
| 1778143126 | 7.78° C | 99% | 1011 hPa | 0 mm | - | 0 W/m² | - |
| 1778142822 | 7.78° C | 99% | 1010.9 hPa | 0 mm | - | 0 W/m² | - |
* Rain latest hour (hover to see other rain measurements)
** Current wind speed in m/s (hover to see current wind gust speed)